User: anonymous   Login
Location: El Centro
(32.7920°N, 115.5620°W)
Time: 14:15:44
(UTC-07:00)
Language:

Hamsat - Orbit

View from above orbital plane
View from above orbital plane
View from above satellite
View from above satellite

Ground track
Ground track

The orbit data is extracted from the following two-line orbital elements,

1 28650U 05017B   17229.11861346  .00000267  00000-0  34241-4 0  9998
2 28650  97.6563 201.4099 0022036 290.5742  69.3112 14.88709880665233
Epoch (UTC): 17 August 2017 02:50:48
Eccentricity: 0.0022036
inclination: 97.6563°
perigee height: 586 km
apogee height: 617 km
right ascension of ascending node: 201.4099°
argument of perigee: 290.5742°
revolutions per day: 14.88709880
mean anomaly at epoch: 69.3112°
orbit number at epoch: 66523

The dashed part of the orbit path shows where the satellite is in the earth's shadow,  

DLR